| time (UTC) | temp C | wind direction | speed KPH | gust KPH | rain 1hr cm | rain 24hr cm | rain mn cm | humidity % | barometer mb |
| 20260901175519 | 31 | 203 | 6.4 | 14.5 | 0.00 | 0.15 | 0.15 | 44 | 1013.7 |
| 20260901174519 | 30 | 293 | 6.4 | 11.3 | 0.00 | 0.15 | 0.15 | 44 | 1013.8 |
| 20260901173732 | 31 | 225 | 4.8 | 11.3 | 0.00 | 0.15 | 0.15 | 35 | 1013.6 |
| 20260901172541 | 30 | 203 | 4.8 | 12.9 | 0.00 | 0.15 | 0.15 | 36 | 1013.6 |
| 20260901171519 | 30 | 270 | 6.4 | 17.7 | 0.00 | 0.15 | 0.15 | 38 | 1013.7 |
| 20260901170519 | 30 | 248 | 4.8 | 9.7 | 0.00 | 0.15 | 0.15 | 25 | 1013.7 |
| 20260901165519 | 30 | 225 | 8.0 | 14.5 | 0.00 | 0.15 | 0.15 | 26 | 1013.9 |
| 20260901164519 | 29 | 225 | 6.4 | 20.9 | 0.00 | 0.15 | 0.15 | 25 | 1014.1 |
| 20260901163519 | 29 | 203 | 8.0 | 17.7 | 0.00 | 0.15 | 0.15 | 18 | 1014.1 |
| 20260901162519 | 29 | 225 | 6.4 | 14.5 | 0.00 | 0.15 | 0.15 | 100 | 1014.0 |
| 20260901161519 | 28 | 225 | 6.4 | 14.5 | 0.00 | 0.15 | 0.15 | 100 | 1014.2 |
| 20260901160519 | 28 | 225 | 6.4 | 14.5 | 0.00 | 0.15 | 0.15 | 100 | 1014.2 |
| 20260901155519 | 27 | 225 | 6.4 | 12.9 | 0.00 | 0.15 | 0.15 | 100 | 1014.1 |
| 20260901154519 | 27 | 225 | 6.4 | 11.3 | 0.00 | 0.15 | 0.15 | 100 | 1014.1 |
| 20260901153519 | 26 | 225 | 1.6 | 4.8 | 0.00 | 0.15 | 0.15 | 100 | 1014.2 |
| 20260901152519 | 25 | 225 | 3.2 | 9.7 | 0.00 | 0.15 | 0.15 | 100 | 1014.4 |
| 20260901151730 | 24 | 0.0 | 3.2 | 0.00 | 0.15 | 0.15 | 100 | 1014.5 | |
| 20260901150519 | 23 | 0.0 | 3.2 | 0.13 | 0.15 | 0.15 | 100 | 1014.6 | |
| 20260901145519 | 23 | 0.0 | 3.2 | 0.13 | 0.15 | 0.15 | 100 | 1014.6 | |
| 20260901144519 | 23 | 0.0 | 3.2 | 0.13 | 0.15 | 0.15 | 100 | 1014.6 | |
| 20260901143942 | 23 | 0.0 | 3.2 | 0.13 | 0.15 | 0.15 | 100 | 1014.6 | |
| 20260901142519 | 24 | 0.0 | 1.6 | 0.13 | 0.15 | 0.15 | 100 | 1014.6 | |
| 20260901142157 | 25 | 0.0 | 1.6 | 0.13 | 0.15 | 0.15 | 100 | 1014.9 | |
| 20260901140519 | 25 | 0.0 | 3.2 | 0.00 | 0.03 | 0.03 | 100 | 1014.7 | |
| 20260901135519 | 25 | 225 | 1.6 | 3.2 | 0.00 | 0.03 | 0.03 | 100 | 1014.7 |
| 20260901134519 | 25 | 0.0 | 1.6 | 0.00 | 0.05 | 0.03 | 100 | 1014.7 | |
| 20260901133729 | 25 | 0.0 | 4.8 | 0.00 | 0.08 | 0.03 | 100 | 1014.7 | |
| 20260901132519 | 24 | 0.0 | 4.8 | 0.00 | 0.08 | 0.03 | 100 | 1014.8 | |
| 20260901131519 | 24 | 0.0 | 0.0 | 0.00 | 0.08 | 0.03 | 100 | 1015.0 | |
| 20260901130519 | 24 | 0.0 | 1.6 | 0.00 | 0.08 | 0.03 | 100 | 1015.1 | |
| 20260901125519 | 24 | 0.0 | 1.6 | 0.00 | 0.08 | 0.03 | 100 | 1015.1 | |
| 20260901124519 | 23 | 225 | 1.6 | 3.2 | 0.00 | 0.08 | 0.03 | 100 | 1015.2 |
| 20260901123519 | 23 | 0.0 | 1.6 | 0.00 | 0.08 | 0.03 | 100 | 1015.4 | |
| 20260901122519 | 22 | 0.0 | 1.6 | 0.00 | 0.08 | 0.03 | 100 | 1015.2 | |
| 20260901121519 | 22 | 0.0 | 0.0 | 0.00 | 0.08 | 0.03 | 100 | 1015.2 | |
| 20260901120519 | 21 | 0.0 | 0.0 | 0.00 | 0.08 | 0.03 | 100 | 1015.2 | |
| 20260901115729 | 21 | 0.0 | 0.0 | 0.03 | 0.08 | 0.03 | 100 | 1015.1 | |
| 20260901114729 | 20 | 0.0 | 0.0 | 0.03 | 0.08 | 0.03 | 100 | 1015.1 | |
| 20260901113519 | 20 | 0.0 | 0.0 | 0.03 | 0.08 | 0.03 | 100 | 1015.3 | |
| 20260901112519 | 20 | 0.0 | 0.0 | 0.03 | 0.08 | 0.03 | 100 | 1015.3 | |
| 20260901111733 | 20 | 0.0 | 0.0 | 0.03 | 0.08 | 0.03 | 100 | 1015.2 | |
| 20260901110519 | 20 | 0.0 | 0.0 | 0.03 | 0.08 | 0.03 | 100 | 1015.2 | |
| 20260901105730 | 20 | 0.0 | 0.0 | 0.00 | 0.05 | 0.00 | 100 | 1015.3 | |
| 20260901104519 | 20 | 0.0 | 0.0 | 0.00 | 0.05 | 0.00 | 100 | 1015.1 | |
| 20260901103519 | 20 | 0.0 | 0.0 | 0.00 | 0.05 | 0.00 | 100 | 1015.2 | |
| 20260901102945 | 20 | 0.0 | 0.0 | 0.00 | 0.05 | 0.00 | 100 | 1015.2 | |
| 20260901101519 | 20 | 0.0 | 0.0 | 0.00 | 0.05 | 0.00 | 100 | 1015.1 | |
| 20260901100942 | 20 | 0.0 | 0.0 | 0.00 | 0.05 | 0.00 | 100 | 1015.1 | |
| 20260901095519 | 20 | 0.0 | 0.0 | 0.00 | 0.05 | 0.00 | 100 | 1015.0 | |
| 20260901094520 | 20 | 0.0 | 0.0 | 0.00 | 0.05 | 0.00 | 100 | 1014.9 | |
| 20260901093519 | 20 | 0.0 | 0.0 | 0.00 | 0.05 | 0.00 | 100 | 1014.9 | |
| 20260901092733 | 20 | 0.0 | 0.0 | 0.00 | 0.05 | 0.00 | 100 | 1015.0 | |
| 20260901091729 | 20 | 0.0 | 0.0 | 0.00 | 0.05 | 0.00 | 100 | 1015.0 | |
| 20260901090519 | 20 | 0.0 | 0.0 | 0.00 | 0.05 | 0.00 | 100 | 1014.9 | |
| 20260901085519 | 20 | 0.0 | 0.0 | 0.00 | 0.05 | 0.00 | 100 | 1015.1 | |
| 20260901084519 | 20 | 0.0 | 0.0 | 0.00 | 0.05 | 0.00 | 100 | 1015.1 | |
| 20260901083519 | 20 | 0.0 | 0.0 | 0.00 | 0.05 | 0.00 | 100 | 1015.2 | |
| 20260901082519 | 20 | 0.0 | 0.0 | 0.00 | 0.05 | 0.00 | 100 | 1015.4 | |
| 20260901081519 | 20 | 0.0 | 0.0 | 0.00 | 0.05 | 0.00 | 100 | 1015.5 | |
| 20260901080520 | 20 | 0.0 | 0.0 | 0.00 | 0.05 | 0.00 | 100 | 1015.5 | |
| 20260901075519 | 20 | 0.0 | 0.0 | 0.00 | 0.05 | 0.00 | 100 | 1015.5 | |
| 20260901074520 | 20 | 0.0 | 0.0 | 0.00 | 0.05 | 0.00 | 100 | 1015.6 | |
| 20260901073520 | 20 | 0.0 | 0.0 | 0.00 | 0.05 | 0.00 | 100 | 1015.7 | |
| 20260901072520 | 20 | 0.0 | 0.0 | 0.00 | 0.05 | 0.00 | 100 | 1015.6 | |
| 20260901071519 | 20 | 0.0 | 0.0 | 0.00 | 0.05 | 0.00 | 100 | 1015.5 | |
| 20260901070731 | 20 | 0.0 | 0.0 | 0.00 | 0.05 | 0.00 | 100 | 1015.4 | |
| 20260901065519 | 20 | 0.0 | 0.0 | 0.00 | 0.05 | 0.00 | 100 | 1015.6 | |
| 20260901064519 | 20 | 0.0 | 0.0 | 0.00 | 0.05 | 0.00 | 100 | 1015.5 | |
| 20260901063520 | 20 | 0.0 | 0.0 | 0.00 | 0.05 | 0.00 | 100 | 1015.5 | |
| 20260901062943 | 20 | 0.0 | 0.0 | 0.00 | 0.05 | 0.00 | 100 | 1015.6 | |
| 20260901061519 | 20 | 0.0 | 4.8 | 0.00 | 0.05 | 0.00 | 100 | 1015.7 | |
| 20260901060519 | 20 | 0.0 | 0.0 | 0.00 | 0.05 | 0.00 | 100 | 1015.8 | |
| 20260901055946 | 20 | 0.0 | 1.6 | 0.00 | 0.05 | 0.00 | 100 | 1016.0 | |
| 20260901054519 | 20 | 0.0 | 0.0 | 0.00 | 0.05 | 0.00 | 100 | 1016.1 | |
| 20260901053519 | 20 | 0.0 | 1.6 | 0.00 | 0.05 | 0.00 | 100 | 1016.2 | |
| 20260901052730 | 21 | 0.0 | 0.0 | 0.00 | 0.05 | 0.00 | 100 | 1016.2 | |
| 20260901051520 | 21 | 0.0 | 0.0 | 0.00 | 0.05 | 0.00 | 100 | 1016.4 | |
| 20260901050732 | 21 | 0.0 | 0.0 | 0.00 | 0.05 | 0.00 | 100 | 1016.4 | |
| 20260901045520 | 21 | 0.0 | 0.0 | 0.00 | 0.05 | 0.00 | 100 | 1016.4 | |
| 20260901044520 | 21 | 0.0 | 0.0 | 0.00 | 0.05 | 0.00 | 100 | 1016.3 | |
| 20260901043730 | 21 | 0.0 | 0.0 | 0.00 | 0.05 | 0.00 | 100 | 1016.3 | |
| 20260901042520 | 21 | 0.0 | 1.6 | 0.00 | 0.05 | 0.00 | 100 | 1016.4 | |
| 20260901041519 | 21 | 0.0 | 1.6 | 0.00 | 0.05 | 0.00 | 100 | 1016.5 | |
| 20260901040520 | 21 | 0.0 | 0.0 | 0.00 | 0.05 | 0.00 | 100 | 1016.4 | |
| 20260901035519 | 21 | 0.0 | 0.0 | 0.00 | 0.05 | 0.05 | 100 | 1016.5 | |
| 20260901034519 | 21 | 0.0 | 1.6 | 0.00 | 0.05 | 0.05 | 100 | 1016.5 | |
| 20260901033519 | 21 | 0.0 | 3.2 | 0.00 | 0.05 | 0.05 | 100 | 1016.6 | |
| 20260901032519 | 21 | 0.0 | 0.0 | 0.00 | 0.05 | 0.05 | 100 | 1016.5 | |
| 20260901031518 | 21 | 0.0 | 0.0 | 0.00 | 0.05 | 0.05 | 100 | 1016.6 | |
| 20260901030519 | 21 | 0.0 | 0.0 | 0.00 | 0.05 | 0.05 | 100 | 1016.5 | |
| 20260901025519 | 21 | 0.0 | 3.2 | 0.00 | 0.05 | 0.05 | 100 | 1016.5 | |
| 20260901024519 | 21 | 0.0 | 0.0 | 0.00 | 0.05 | 0.05 | 100 | 1016.7 | |
| 20260901023519 | 21 | 0.0 | 0.0 | 0.00 | 0.05 | 0.05 | 100 | 1016.8 | |
| 20260901022519 | 21 | 0.0 | 0.0 | 0.00 | 0.05 | 0.05 | 100 | 1016.9 | |
| 20260901021519 | 21 | 0.0 | 0.0 | 0.00 | 0.05 | 0.05 | 100 | 1017.0 | |
| 20260901020519 | 21 | 0.0 | 0.0 | 0.00 | 0.05 | 0.05 | 100 | 1017.0 | |
| 20260901015519 | 21 | 0.0 | 0.0 | 0.00 | 0.05 | 0.05 | 100 | 1017.1 | |
| 20260901014519 | 21 | 0.0 | 0.0 | 0.00 | 0.05 | 0.05 | 100 | 1017.0 | |
| 20260901013945 | 22 | 0.0 | 0.0 | 0.00 | 0.05 | 0.05 | 100 | 1016.8 | |
| 20260901012519 | 22 | 0.0 | 0.0 | 0.00 | 0.05 | 0.05 | 100 | 1016.7 | |
| 20260901011519 | 22 | 0.0 | 0.0 | 0.00 | 0.05 | 0.05 | 100 | 1016.5 | |
| 20260901010519 | 22 | 0.0 | 0.0 | 0.00 | 0.05 | 0.05 | 100 | 1016.5 | |
| 20260901005519 | 23 | 0.0 | 0.0 | 0.00 | 0.05 | 0.05 | 100 | 1016.5 | |
| 20260901004519 | 23 | 0.0 | 0.0 | 0.00 | 0.05 | 0.05 | 100 | 1016.4 | |
| 20260901003519 | 23 | 0.0 | 0.0 | 0.00 | 0.05 | 0.05 | 100 | 1016.2 | |
| 20260901002519 | 24 | 0.0 | 0.0 | 0.00 | 0.05 | 0.05 | 100 | 1016.2 | |
| 20260901001519 | 24 | 0.0 | 0.0 | 0.00 | 0.05 | 0.05 | 100 | 1016.3 | |
| 20260901000519 | 25 | 0.0 | 0.0 | 0.00 | 0.05 | 0.05 | 100 | 1016.2 | |
| 20260831235520 | 25 | 0.0 | 0.0 | 0.00 | 0.05 | 0.05 | 100 | 1016.2 | |
| 20260831234519 | 25 | 0.0 | 0.0 | 0.00 | 0.05 | 0.05 | 100 | 1016.3 | |
| 20260831233520 | 26 | 0.0 | 0.0 | 0.00 | 0.05 | 0.05 | 100 | 1016.3 | |
| 20260831232519 | 26 | 0.0 | 0.0 | 0.00 | 0.05 | 0.05 | 100 | 1016.4 | |
| 20260831231519 | 26 | 0.0 | 0.0 | 0.00 | 0.05 | 0.05 | 100 | 1016.3 | |
| 20260831230519 | 26 | 0.0 | 3.2 | 0.00 | 0.05 | 0.05 | 13 | 1016.4 | |
| 20260831225732 | 26 | 225 | 1.6 | 4.8 | 0.00 | 0.05 | 0.05 | 22 | 1016.5 |
| 20260831224519 | 27 | 0.0 | 3.2 | 0.00 | 0.05 | 0.05 | 18 | 1016.5 | |
| 20260831223519 | 27 | 225 | 1.6 | 6.4 | 0.00 | 0.05 | 0.05 | 24 | 1016.4 |
| 20260831222943 | 27 | 225 | 3.2 | 8.0 | 0.00 | 0.05 | 0.05 | 27 | 1016.5 |
| 20260831221520 | 27 | 0.0 | 3.2 | 0.00 | 0.05 | 0.05 | 17 | 1016.6 | |
| 20260831220519 | 26 | 225 | 3.2 | 6.4 | 0.00 | 0.05 | 0.05 | 18 | 1016.6 |
| 20260831215519 | 26 | 225 | 3.2 | 8.0 | 0.00 | 0.05 | 0.05 | 7 | 1016.6 |
| 20260831214734 | 26 | 225 | 3.2 | 4.8 | 0.00 | 0.05 | 0.05 | 1 | 1016.7 |
| 20260831213520 | 26 | 225 | 1.6 | 4.8 | 0.00 | 0.05 | 0.05 | 5 | 1016.9 |
| 20260831212730 | 26 | 225 | 1.6 | 4.8 | 0.00 | 0.05 | 0.05 | 100 | 1016.9 |
| 20260831211519 | 26 | 225 | 1.6 | 4.8 | 0.00 | 0.05 | 0.05 | 3 | 1017.0 |
| 20260831210945 | 26 | 225 | 3.2 | 6.4 | 0.00 | 0.05 | 0.05 | 2 | 1017.1 |
| 20260831205519 | 26 | 0.0 | 3.2 | 0.00 | 0.05 | 0.05 | 6 | 1017.1 | |
| 20260831204519 | 26 | 0.0 | 3.2 | 0.00 | 0.05 | 0.05 | 19 | 1017.3 | |
| 20260831203520 | 26 | 225 | 1.6 | 4.8 | 0.00 | 0.05 | 0.05 | 24 | 1017.3 |
| 20260831202519 | 26 | 225 | 1.6 | 4.8 | 0.00 | 0.05 | 0.05 | 24 | 1017.3 |
| 20260831201520 | 26 | 225 | 1.6 | 4.8 | 0.00 | 0.05 | 0.05 | 26 | 1017.5 |
| 20260831200519 | 26 | 225 | 1.6 | 4.8 | 0.00 | 0.05 | 0.05 | 31 | 1017.5 |
| 20260831195519 | 26 | 0.0 | 1.6 | 0.00 | 0.05 | 0.05 | 26 | 1017.5 | |
| 20260831195156 | 26 | 225 | 1.6 | 6.4 | 0.00 | 0.05 | 0.05 | 33 | 1017.5 |
| 20260831193519 | 26 | 225 | 6.4 | 14.5 | 0.00 | 0.05 | 0.05 | 35 | 1017.6 |
| 20260831192519 | 26 | 248 | 3.2 | 8.0 | 0.00 | 0.05 | 0.05 | 23 | 1017.6 |
| 20260831191519 | 26 | 270 | 3.2 | 9.7 | 0.00 | 0.05 | 0.05 | 32 | 1017.7 |
| 20260831190520 | 26 | 270 | 1.6 | 6.4 | 0.00 | 0.05 | 0.05 | 29 | 1018.0 |
| 20260831185519 | 26 | 270 | 1.6 | 4.8 | 0.00 | 0.05 | 0.05 | 39 | 1018.2 |
| 20260831184730 | 26 | 270 | 3.2 | 6.4 | 0.00 | 0.05 | 0.05 | 25 | 1018.2 |
| 20260831183519 | 26 | 270 | 3.2 | 8.0 | 0.00 | 0.05 | 0.05 | 37 | 1018.2 |
| 20260831182520 | 26 | 270 | 3.2 | 6.4 | 0.00 | 0.05 | 0.05 | 24 | 1018.2 |
| 20260831181519 | 25 | 270 | 3.2 | 6.4 | 0.00 | 0.05 | 0.05 | 29 | 1018.3 |
| 20260831180519 | 25 | 270 | 3.2 | 4.8 | 0.00 | 0.05 | 0.05 | 24 | 1018.3 |